CZ-6A DEB, 56646

Orbit data source: Space-Track

CZ-6A DEB, 56646 is space debris in SSO originally from a launch on Fri, 11 Nov 2022 UTC launched from the Taiyaun Space Center, China (TSC). Debris objects in space refer to the collection of defunct objects orbiting the Earth. Examples of debris include non-operational satellites, rocket bodies, and fragments generated from explosions, collisions, or faulty payload assembly.

Loading next visibility...
Identifier
56646, 2022-151AFW
Orbit
SSO
Country
Flag of CNCN / PRC
Related business
Manufacturer
SAST
Mission
Spacecraft
Bus & Motor
Unknown
Mass
Unknown
Launch date (UTC)
2022-11-11 (3 years ago)
Launch vehicle
Unknown
Launch site
Taiyaun Space Center, China (TSC)
Object type
Payload
Rocket body
Debris
Shape & HBR
Unknown shape, 0.1 m
Radar Cross Section
Small (<0.1 m²)

Expand to show TLE details & history
Last TLE update: 2 days ago

TLE from 2 days ago
0 CZ-6A DEB
1 56646U 22151AFW 25348.89667007  .00001965  00000-0  49908-3 0  9997
2 56646  98.7219  47.0173 0106759 149.2719 211.4783 14.48591869139372
Epoch: 2025-12-14T21:31Z
TLE epoch observation values (Epoch: 2025-12-14T21:31:12.294Z)
Latitude
Longitude
0.41307°
Altitude
798.157 km
Speed
7.42 km/s
True Right ascension
03h 08m 04s
True Declination
0° 00' 00"
Sunlit
Object was in full shadow at epoch
Visualization orbit readout
Latitude
Unknown
Longitude
Unknown
Altitude
Unknown
Speed
Unknown
Apparent Right ascension
Unknown
Apparent Declination
Unknown
Sunlit
N/A
Visualization observer readout
Local Sidereal Time
11:31:31
Azimuth
Unknown
Elevation
Unknown
Doppler factor
Unknown
Orbital elements
Apogee altitude
803.23 km
Perigee altitude
651.514 km
Semi-major axis
7,105.509 km
Eccentricity
0.01068
Inclination
98.7219°
RAAN
47.0173°
Arg. of periapsis
149.2719°
True anomaly
210.84669°
Mean anomaly
211.4783°
Eccentric anomaly
211.16178°
Mean motion
3.62368 °/min
Orbital period
99.35 mins
BSTAR
0.00049908
Loading maneuver chart data...
Computing Atmospheric mass density...
Loading historical data...
Loading historical data...
Loading historical data...
Loading historical data...
Loading historical data...
Loading historical data...
Loading historical data...

Documentation

Showing up to 5 results
|